TRA8V EHAM-LOWI

Flight info

Callsign TRA8V
Flight time N/A
Altitude 37000
Route EDUPO Z739 MISGO DCT ASBON DCT TUSUK DCT ULNOK L607 TEDGO/N0451F350 DCT BATUB/N0448F310 M738 MADEB MADEB1B
Aircraft B738/M-SDE2E3FGHIRWXY/LB1

Departure

Time 2026-05-05 13:47
Airport Amsterdam Airport Schiphol (EHAM)

Arrival

Time N/A
Airport Innsbruck Airport (LOWI)
Time Latitude Longitude Altitude Speed Heading
2026-05-05 13:15 52.30890 4.77299 13 ft 0 kts
2026-05-05 13:34 52.30879 4.77298 13 ft 2 kts
2026-05-05 13:34 52.30865 4.77291 13 ft 2 kts 31°
2026-05-05 13:34 52.30853 4.77276 13 ft 2 kts 51°
2026-05-05 13:35 52.30846 4.77255 13 ft 2 kts 72°
2026-05-05 13:35 52.30843 4.77234 13 ft 0 kts 90°
2026-05-05 13:35 52.30843 4.77223 13 ft 1 kts 95°
2026-05-05 13:35 52.30843 4.77221 13 ft 0 kts 94°
2026-05-05 13:39 52.30843 4.77237 13 ft 5 kts 92°
2026-05-05 13:39 52.30841 4.77310 13 ft 8 kts 93°
2026-05-05 13:40 52.30835 4.77448 10 ft 14 kts 96°
2026-05-05 13:40 52.30845 4.77586 10 ft 11 kts 46°
2026-05-05 13:40 52.30939 4.77615 10 ft 15 kts
2026-05-05 13:40 52.31075 4.77627 9 ft 23 kts
2026-05-05 13:41 52.31248 4.77642 5 ft 24 kts
2026-05-05 13:41 52.31420 4.77652 1 ft 25 kts 351°
2026-05-05 13:41 52.31555 4.77480 2 ft 24 kts 303°
2026-05-05 13:41 52.31574 4.77212 1 ft 24 kts 267°
2026-05-05 13:42 52.31564 4.76929 0 ft 25 kts 265°
2026-05-05 13:42 52.31554 4.76640 0 ft 23 kts 267°
2026-05-05 13:42 52.31544 4.76368 -1 ft 24 kts 267°
2026-05-05 13:42 52.31535 4.76091 -1 ft 24 kts 267°
2026-05-05 13:43 52.31526 4.75815 0 ft 24 kts 267°
2026-05-05 13:43 52.31516 4.75551 2 ft 23 kts 266°
2026-05-05 13:43 52.31507 4.75281 0 ft 24 kts 267°
2026-05-05 13:43 52.31497 4.74995 -3 ft 26 kts 267°
2026-05-05 13:44 52.31487 4.74706 -5 ft 25 kts 267°
2026-05-05 13:44 52.31477 4.74411 -6 ft 26 kts 266°
2026-05-05 13:44 52.31443 4.74178 -3 ft 17 kts 223°
2026-05-05 13:44 52.31324 4.74133 -2 ft 17 kts 186°
2026-05-05 13:45 52.31169 4.74115 -3 ft 24 kts 182°
2026-05-05 13:45 52.31000 4.74101 -4 ft 24 kts 183°
2026-05-05 13:45 52.30821 4.74084 -8 ft 26 kts 183°
2026-05-05 13:45 52.30640 4.74066 -9 ft 19 kts 190°
2026-05-05 13:46 52.30622 4.73917 -9 ft 15 kts 338°
2026-05-05 13:46 52.30700 4.73855 -9 ft 13 kts 331°
2026-05-05 13:46 52.30798 4.73791 -8 ft 11 kts 359°
2026-05-05 13:46 52.30802 4.73791 -9 ft 1 kts
2026-05-05 13:47 52.31020 4.73811 -6 ft 83 kts
2026-05-05 13:47 52.31935 4.73891 62 ft 171 kts
2026-05-05 13:47 52.33124 4.74015 1241 ft 179 kts
2026-05-05 13:47 52.34235 4.74543 2482 ft 176 kts 26°
2026-05-05 13:48 52.35370 4.75408 3337 ft 193 kts 24°
2026-05-05 13:48 52.36672 4.76255 4218 ft 215 kts 21°
2026-05-05 13:48 52.38068 4.77293 5186 ft 232 kts 33°
2026-05-05 13:48 52.39330 4.79085 6122 ft 251 kts 46°
2026-05-05 13:49 52.40316 4.81526 7026 ft 271 kts 71°
2026-05-05 13:49 52.40404 4.84602 8200 ft 282 kts 102°
2026-05-05 13:49 52.39440 4.87364 9370 ft 290 kts 137°
2026-05-05 13:49 52.37637 4.88780 10490 ft 296 kts 163°
2026-05-05 13:50 52.35814 4.90277 11539 ft 302 kts 140°
2026-05-05 13:50 52.34578 4.93081 12395 ft 312 kts 108°
2026-05-05 13:50 52.34073 4.96486 13434 ft 317 kts 99°
2026-05-05 13:50 52.33630 5.00004 14589 ft 320 kts 103°
2026-05-05 13:51 52.32931 5.03482 15556 ft 327 kts 112°
2026-05-05 13:51 52.31924 5.06808 16581 ft 332 kts 120°
2026-05-05 13:51 52.30725 5.10039 17573 ft 337 kts 123°
2026-05-05 13:51 52.29441 5.13237 18536 ft 341 kts 125°
2026-05-05 13:52 52.28128 5.16451 19442 ft 346 kts 125°
2026-05-05 13:52 52.26799 5.19728 20370 ft 350 kts 124°
2026-05-05 13:52 52.25461 5.23061 21254 ft 355 kts 124°
2026-05-05 13:52 52.24106 5.26444 22119 ft 359 kts 125°
2026-05-05 13:53 52.22694 5.29820 22926 ft 364 kts 127°
2026-05-05 13:53 52.21232 5.33187 23736 ft 368 kts 127°
2026-05-05 13:53 52.19736 5.36588 24543 ft 372 kts 128°
2026-05-05 13:53 52.18223 5.40018 25320 ft 375 kts 128°
2026-05-05 13:54 52.16696 5.43485 26044 ft 380 kts 128°
2026-05-05 13:54 52.15163 5.46974 26757 ft 384 kts 128°
2026-05-05 13:54 52.13609 5.50518 27479 ft 387 kts 128°
2026-05-05 13:54 52.12032 5.54115 28138 ft 391 kts 128°
2026-05-05 13:55 52.10454 5.57715 28796 ft 395 kts 129°
2026-05-05 13:55 52.08859 5.61349 29445 ft 398 kts 129°
2026-05-05 13:55 52.07250 5.65008 30051 ft 401 kts 130°
2026-05-05 13:55 52.05606 5.68672 30659 ft 404 kts 132°
2026-05-05 13:56 52.03835 5.72226 31205 ft 406 kts 135°
2026-05-05 13:56 52.01989 5.75677 31794 ft 408 kts 136°
2026-05-05 13:56 52.00097 5.79125 32277 ft 413 kts 136°
2026-05-05 13:56 51.98184 5.82598 32862 ft 416 kts 136°
2026-05-05 13:57 51.96260 5.86102 33324 ft 420 kts 136°
2026-05-05 13:57 51.94326 5.89648 33850 ft 423 kts 136°
2026-05-05 13:57 51.92380 5.93235 34326 ft 427 kts 136°
2026-05-05 13:57 51.90416 5.96863 34690 ft 433 kts 136°
2026-05-05 13:58 51.88439 6.00527 35147 ft 436 kts 136°
2026-05-05 13:58 51.86461 6.04200 35628 ft 434 kts 135°
2026-05-05 13:58 51.84496 6.07847 36030 ft 433 kts 135°
2026-05-05 13:58 51.82516 6.11502 36336 ft 434 kts 135°
2026-05-05 13:59 51.78532 6.18807 36856 ft 439 kts 135°
2026-05-05 13:59 51.76512 6.22497 36881 ft 439 kts 135°
2026-05-05 14:00 51.71191 6.32208 36892 ft 432 kts 135°
2026-05-05 14:00 51.66552 6.40640 36889 ft 433 kts 135°
2026-05-05 14:01 51.62573 6.47844 36884 ft 432 kts 135°
2026-05-05 14:01 51.58595 6.55032 36879 ft 431 kts 135°
2026-05-05 14:02 51.54614 6.62208 36876 ft 431 kts 135°
2026-05-05 14:02 51.50641 6.69351 36872 ft 430 kts 136°
2026-05-05 14:03 51.46672 6.76467 36865 ft 430 kts 136°
2026-05-05 14:03 51.42684 6.83539 36855 ft 426 kts 137°
2026-05-05 14:04 51.38317 6.89821 36857 ft 421 kts 148°
2026-05-05 14:04 51.33467 6.94945 36852 ft 418 kts 152°
2026-05-05 14:05 51.28547 6.99764 36851 ft 416 kts 152°
2026-05-05 14:05 51.23616 7.04598 36842 ft 417 kts 152°
2026-05-05 14:06 51.18717 7.09450 36840 ft 415 kts 152°
2026-05-05 14:06 51.13831 7.14308 36825 ft 415 kts 152°
2026-05-05 14:07 51.08952 7.19158 36828 ft 415 kts 152°
2026-05-05 14:07 51.04067 7.24005 36834 ft 415 kts 152°
2026-05-05 14:08 50.99177 7.28835 36827 ft 414 kts 152°
2026-05-05 14:08 50.94293 7.33638 36833 ft 415 kts 152°
2026-05-05 14:09 50.89422 7.38450 36825 ft 413 kts 152°
2026-05-05 14:09 50.84555 7.43252 36824 ft 415 kts 151°
2026-05-05 14:10 50.79676 7.48042 36817 ft 414 kts 151°
2026-05-05 14:10 50.74802 7.52818 36820 ft 413 kts 151°
2026-05-05 14:11 50.69938 7.57616 36818 ft 414 kts 150°
2026-05-05 14:11 50.65146 7.62572 36822 ft 413 kts 149°
2026-05-05 14:12 50.60362 7.67569 36823 ft 413 kts 150°
2026-05-05 14:12 50.55574 7.72548 36821 ft 413 kts 150°
2026-05-05 14:13 50.50776 7.77493 36823 ft 413 kts 150°
2026-05-05 14:13 50.45982 7.82417 36820 ft 412 kts 150°
2026-05-05 14:14 50.41191 7.87322 36821 ft 413 kts 150°
2026-05-05 14:14 50.36394 7.92223 36826 ft 413 kts 150°
2026-05-05 14:15 50.31598 7.97099 36821 ft 411 kts 150°
2026-05-05 14:15 50.26815 8.01962 36838 ft 411 kts 150°
2026-05-05 14:16 50.22024 8.06818 36844 ft 411 kts 150°
2026-05-05 14:16 50.17224 8.11682 36843 ft 412 kts 150°
2026-05-05 14:17 50.12431 8.16506 36845 ft 411 kts 150°
2026-05-05 14:17 50.07536 8.21120 36844 ft 412 kts 152°
2026-05-05 14:18 50.02603 8.25618 36838 ft 412 kts 152°
2026-05-05 14:18 49.97681 8.30117 36837 ft 411 kts 152°
2026-05-05 14:19 49.92776 8.34615 36825 ft 410 kts 152°
2026-05-05 14:19 49.87877 8.39123 36833 ft 411 kts 151°
2026-05-05 14:20 49.83219 8.44277 36829 ft 414 kts 142°
2026-05-05 14:20 49.78963 8.50292 36833 ft 416 kts 139°
2026-05-05 14:21 49.74772 8.56433 36835 ft 416 kts 140°
2026-05-05 14:21 49.69979 8.61128 36841 ft 408 kts 162°
2026-05-05 14:22 49.64484 8.63146 36835 ft 406 kts 171°
2026-05-05 14:22 49.58927 8.64603 36839 ft 406 kts 171°
2026-05-05 14:23 49.53358 8.66064 36834 ft 406 kts 172°
2026-05-05 14:23 49.47827 8.67683 36836 ft 406 kts 168°
2026-05-05 14:24 49.42485 8.70508 36844 ft 409 kts 159°
2026-05-05 14:24 49.37324 8.74099 36827 ft 408 kts 157°
2026-05-05 14:25 49.32193 8.77779 36830 ft 409 kts 158°
2026-05-05 14:25 49.27031 8.81413 36829 ft 409 kts 158°
2026-05-05 14:26 49.21850 8.85012 36825 ft 410 kts 158°
2026-05-05 14:26 49.16655 8.88599 36830 ft 410 kts 158°
2026-05-05 14:27 49.11458 8.92177 36823 ft 409 kts 158°
2026-05-05 14:27 49.06286 8.95727 36821 ft 409 kts 158°
2026-05-05 14:28 49.01102 8.99277 36830 ft 409 kts 158°
2026-05-05 14:28 48.95922 9.02818 36827 ft 410 kts 158°
2026-05-05 14:29 48.90718 9.06364 36826 ft 411 kts 158°
2026-05-05 14:29 48.85513 9.09903 36828 ft 411 kts 158°
2026-05-05 14:30 48.80317 9.13429 36831 ft 410 kts 158°
2026-05-05 14:30 48.75093 9.16963 36828 ft 411 kts 158°
2026-05-05 14:31 48.69897 9.20471 36836 ft 410 kts 158°
2026-05-05 14:31 48.64676 9.23987 36843 ft 412 kts 158°
2026-05-05 14:32 48.59418 9.27356 36839 ft 411 kts 162°
2026-05-05 14:32 48.54008 9.30156 36848 ft 410 kts 164°
2026-05-05 14:33 48.48604 9.32818 36848 ft 410 kts 164°
2026-05-05 14:33 48.43188 9.35517 36849 ft 410 kts 163°
2026-05-05 14:34 48.37777 9.38246 36844 ft 411 kts 163°
2026-05-05 14:34 48.32367 9.40988 36848 ft 412 kts 164°
2026-05-05 14:35 48.29668 9.42358 36667 ft 408 kts 164°
2026-05-05 14:35 48.27008 9.43709 36336 ft 401 kts 163°
2026-05-05 14:35 48.24396 9.45037 35911 ft 396 kts 163°
2026-05-05 14:35 48.21802 9.46352 35368 ft 395 kts 163°
2026-05-05 14:36 48.19211 9.47662 34778 ft 395 kts 163°
2026-05-05 14:36 48.16620 9.48970 34128 ft 394 kts 163°
2026-05-05 14:36 48.14037 9.50271 33510 ft 392 kts 163°
2026-05-05 14:36 48.11472 9.51561 32881 ft 390 kts 163°
2026-05-05 14:37 48.08907 9.52852 32242 ft 389 kts 163°
2026-05-05 14:37 48.06349 9.54141 31594 ft 388 kts 162°
2026-05-05 14:37 48.03825 9.55531 30945 ft 389 kts 159°
2026-05-05 14:37 48.01338 9.57232 30448 ft 397 kts 154°
2026-05-05 14:38 47.98942 9.59356 29930 ft 406 kts 149°
2026-05-05 14:38 47.96625 9.61739 29382 ft 404 kts 146°
2026-05-05 14:38 47.94378 9.64205 28848 ft 397 kts 145°
2026-05-05 14:38 47.92191 9.66655 28329 ft 390 kts 146°
2026-05-05 14:39 47.90053 9.69049 27811 ft 383 kts 146°
2026-05-05 14:39 47.87935 9.71396 27297 ft 377 kts 146°
2026-05-05 14:39 47.85846 9.73689 26797 ft 371 kts 147°
2026-05-05 14:39 47.83780 9.75935 26300 ft 367 kts 147°
2026-05-05 14:40 47.81701 9.78177 25805 ft 376 kts 147°
2026-05-05 14:40 47.79551 9.80482 25273 ft 386 kts 147°
2026-05-05 14:40 47.77370 9.82818 24731 ft 386 kts 147°
2026-05-05 14:40 47.75220 9.85125 24192 ft 379 kts 147°
2026-05-05 14:41 47.73111 9.87387 23675 ft 373 kts 147°
2026-05-05 14:41 47.71031 9.89615 23171 ft 367 kts 147°
2026-05-05 14:41 47.68975 9.91814 22671 ft 361 kts 147°
2026-05-05 14:41 47.66954 9.93973 22160 ft 356 kts 147°
2026-05-05 14:42 47.64968 9.96093 21684 ft 351 kts 147°
2026-05-05 14:42 47.63000 9.98189 21192 ft 346 kts 147°
2026-05-05 14:42 47.61043 10.00271 20694 ft 342 kts 148°
2026-05-05 14:42 47.59087 10.02345 20211 ft 351 kts 148°
2026-05-05 14:43 47.57078 10.04468 19708 ft 360 kts 147°
2026-05-05 14:43 47.55029 10.06636 19174 ft 358 kts 147°
2026-05-05 14:43 47.53026 10.08759 18649 ft 352 kts 147°
2026-05-05 14:43 47.51058 10.10850 18155 ft 347 kts 147°
2026-05-05 14:44 47.49096 10.12931 17639 ft 342 kts 147°
2026-05-05 14:44 47.47179 10.14962 17162 ft 337 kts 147°
2026-05-05 14:44 47.45282 10.16968 16665 ft 332 kts 147°
2026-05-05 14:44 47.43406 10.18924 16192 ft 327 kts 149°
2026-05-05 14:45 47.41514 10.20736 15724 ft 323 kts 151°
2026-05-05 14:45 47.39605 10.22450 15245 ft 319 kts 152°
2026-05-05 14:45 47.37714 10.24124 14817 ft 318 kts 152°
2026-05-05 14:45 47.35811 10.25817 14420 ft 319 kts 151°
2026-05-05 14:46 47.34011 10.27592 13971 ft 307 kts 144°
2026-05-05 14:46 47.32587 10.29848 13535 ft 300 kts 123°
2026-05-05 14:46 47.31870 10.32699 13108 ft 293 kts 104°
2026-05-05 14:46 47.31527 10.35592 12945 ft 274 kts 102°
2026-05-05 14:47 47.31208 10.38248 12983 ft 256 kts 103°
2026-05-05 14:47 47.30867 10.40806 12937 ft 251 kts 104°
2026-05-05 14:47 47.30519 10.43317 12953 ft 249 kts 104°
2026-05-05 14:47 47.30165 10.45839 12947 ft 252 kts 105°
2026-05-05 14:48 47.29812 10.48361 12925 ft 252 kts 104°
2026-05-05 14:48 47.29463 10.50887 12925 ft 252 kts 104°
2026-05-05 14:48 47.29125 10.53414 12924 ft 254 kts 104°
2026-05-05 14:48 47.28780 10.55968 12919 ft 253 kts 102°
2026-05-05 14:49 47.28627 10.58560 12924 ft 255 kts 91°
2026-05-05 14:49 47.28738 10.61175 12933 ft 257 kts 86°
2026-05-05 14:49 47.28927 10.63790 12937 ft 257 kts 86°
2026-05-05 14:49 47.29102 10.66401 12937 ft 256 kts 88°
2026-05-05 14:50 47.29246 10.68999 12858 ft 255 kts 88°
2026-05-05 14:50 47.29377 10.71659 12203 ft 268 kts 88°
2026-05-05 14:50 47.29516 10.74468 11452 ft 282 kts 88°
2026-05-05 14:50 47.29666 10.77381 10926 ft 285 kts 88°
2026-05-05 14:51 47.29817 10.80244 10604 ft 274 kts 88°
2026-05-05 14:51 47.29961 10.82963 10342 ft 261 kts 88°
2026-05-05 14:51 47.30098 10.85594 9929 ft 256 kts 88°
2026-05-05 14:51 47.30230 10.88219 9369 ft 256 kts 88°
2026-05-05 14:52 47.30263 10.88904 9225 ft 256 kts 88°
2026-05-05 14:52 47.30322 10.90144 8885 ft 255 kts 88°
2026-05-05 14:52 47.30437 10.92734 8402 ft 252 kts 88°
2026-05-05 14:52 47.30545 10.95263 7915 ft 244 kts 88°
2026-05-05 14:53 47.30656 10.97730 7397 ft 239 kts 88°
2026-05-05 14:53 47.30771 11.00155 6882 ft 233 kts 88°
2026-05-05 14:53 47.30885 11.02494 6362 ft 226 kts 88°
2026-05-05 14:53 47.30994 11.04747 5916 ft 217 kts 88°
2026-05-05 14:54 47.31007 11.06868 5472 ft 198 kts 99°
2026-05-05 14:54 47.30634 11.08695 5045 ft 179 kts 118°
2026-05-05 14:54 47.30094 11.10227 4762 ft 160 kts 120°
2026-05-05 14:54 47.29602 11.11668 4503 ft 153 kts 117°
2026-05-05 14:55 47.29146 11.13076 4279 ft 151 kts 117°
2026-05-05 14:55 47.28683 11.14462 4080 ft 150 kts 119°
2026-05-05 14:55 47.28210 11.15858 3926 ft 152 kts 118°
2026-05-05 14:55 47.27757 11.17261 3773 ft 152 kts 118°
2026-05-05 14:56 47.27359 11.18703 3595 ft 153 kts 107°
2026-05-05 14:56 47.27186 11.20272 3382 ft 154 kts 100°
2026-05-05 14:56 47.27058 11.21731 3216 ft 134 kts 101°
2026-05-05 14:56 47.26907 11.23076 3096 ft 135 kts 104°
2026-05-05 14:57 47.26715 11.24480 3145 ft 147 kts 107°
2026-05-05 14:57 47.26392 11.25942 3168 ft 151 kts 113°
2026-05-05 14:57 47.26008 11.27408 3021 ft 154 kts 114°
2026-05-05 14:57 47.25708 11.28914 2823 ft 155 kts 104°
2026-05-05 14:58 47.25640 11.30479 2486 ft 150 kts 90°
2026-05-05 14:58 47.25759 11.31965 2189 ft 146 kts 82°
2026-05-05 14:58 47.25914 11.33439 1987 ft 139 kts 84°
2026-05-05 14:58 47.26055 11.34866 2168 ft 160 kts 85°
2026-05-05 14:59 47.26201 11.36602 2760 ft 180 kts 86°
2026-05-05 14:59 47.26432 11.38542 3258 ft 210 kts 81°
2026-05-05 14:59 47.26720 11.40584 4531 ft 210 kts 81°
2026-05-05 14:59 47.26963 11.42586 5826 ft 207 kts 83°
2026-05-05 15:00 47.27201 11.44612 6956 ft 211 kts 79°
2026-05-05 15:00 47.27480 11.45974 7712 ft 214 kts 71°
2026-05-05 15:00 47.28251 11.48634 9177 ft 218 kts 68°
2026-05-05 15:00 47.28878 11.50734 9682 ft 231 kts 68°
2026-05-05 15:01 47.29503 11.52919 9687 ft 229 kts 69°
2026-05-05 15:01 47.30100 11.55048 9681 ft 220 kts 69°
2026-05-05 15:01 47.30677 11.57121 9692 ft 219 kts 69°
2026-05-05 15:01 47.31257 11.59206 9702 ft 221 kts 69°
2026-05-05 15:02 47.31841 11.61302 9711 ft 221 kts 69°
2026-05-05 15:02 47.32426 11.63398 9718 ft 221 kts 69°
2026-05-05 15:02 47.33011 11.65498 9724 ft 220 kts 70°
2026-05-05 15:02 47.33597 11.67603 9731 ft 220 kts 70°
2026-05-05 15:03 47.34178 11.69695 9736 ft 221 kts 70°
2026-05-05 15:03 47.34765 11.71811 9747 ft 232 kts 70°
2026-05-05 15:03 47.35408 11.74140 9748 ft 254 kts 70°
2026-05-05 15:03 47.36085 11.76584 9739 ft 260 kts 70°
2026-05-05 15:04 47.36804 11.79177 9734 ft 283 kts 69°
2026-05-05 15:04 47.37573 11.81873 9718 ft 283 kts 67°
2026-05-05 15:04 47.38526 11.84373 9709 ft 273 kts 59°
2026-05-05 15:04 47.39582 11.86617 9698 ft 260 kts 56°
2026-05-05 15:05 47.41265 11.90013 9674 ft 226 kts 56°
2026-05-05 15:05 47.42166 11.91883 9668 ft 220 kts 57°
2026-05-05 15:05 47.43050 11.93736 9658 ft 222 kts 55°
2026-05-05 15:06 47.44038 11.95513 9644 ft 223 kts 51°
2026-05-05 15:06 47.45050 11.97244 9630 ft 223 kts 51°
2026-05-05 15:06 47.46064 11.98985 9617 ft 223 kts 51°
2026-05-05 15:06 47.47072 12.00723 9605 ft 223 kts 51°
2026-05-05 15:07 47.48192 12.02323 9597 ft 225 kts 36°
2026-05-05 15:07 47.49672 12.03043 9590 ft 228 kts 360°
2026-05-05 15:07 47.51182 12.02377 9592 ft 228 kts 327°
2026-05-05 15:07 47.52357 12.00824 9582 ft 227 kts 306°
2026-05-05 15:08 47.52959 11.98722 9566 ft 223 kts 274°
2026-05-05 15:08 47.52707 11.96434 9638 ft 242 kts 247°
2026-05-05 15:08 47.51814 11.94263 10325 ft 261 kts 228°
2026-05-05 15:08 47.50516 11.92304 11205 ft 279 kts 223°
2026-05-05 15:09 47.49076 11.90298 12205 ft 294 kts 223°
2026-05-05 15:09 47.47577 11.88161 12838 ft 312 kts 224°
2026-05-05 15:09 47.46022 11.85879 13004 ft 315 kts 225°
2026-05-05 15:09 47.44488 11.83586 13042 ft 311 kts 225°
2026-05-05 15:10 47.42991 11.81335 13062 ft 309 kts 225°
2026-05-05 15:10 47.41509 11.79109 13078 ft 309 kts 225°
2026-05-05 15:10 47.39978 11.76814 13177 ft 323 kts 225°
2026-05-05 15:10 47.38340 11.74368 13159 ft 338 kts 225°
2026-05-05 15:11 47.36717 11.71947 13129 ft 328 kts 225°
2026-05-05 15:11 47.35089 11.69520 13717 ft 342 kts 225°
2026-05-05 15:11 47.33455 11.67088 15138 ft 338 kts 225°
2026-05-05 15:11 47.31827 11.64666 16592 ft 334 kts 225°
2026-05-05 15:12 47.30236 11.62300 17958 ft 328 kts 225°
2026-05-05 15:12 47.28618 11.59898 19040 ft 332 kts 225°
2026-05-05 15:12 47.27012 11.57516 20226 ft 332 kts 225°
2026-05-05 15:12 47.25379 11.55098 21187 ft 338 kts 224°
2026-05-05 15:13 47.23707 11.52625 21843 ft 346 kts 224°
2026-05-05 15:13 47.22008 11.50114 21976 ft 345 kts 224°
2026-05-05 15:13 47.20319 11.47619 21997 ft 343 kts 224°
2026-05-05 15:13 47.18642 11.45144 22008 ft 340 kts 224°
2026-05-05 15:14 47.16975 11.42683 22017 ft 340 kts 224°
2026-05-05 15:14 47.15300 11.40214 22028 ft 341 kts 224°
2026-05-05 15:14 47.13623 11.37745 22042 ft 342 kts 224°
2026-05-05 15:14 47.11948 11.35281 22057 ft 340 kts 224°
2026-05-05 15:15 47.10274 11.32819 22075 ft 340 kts 223°
2026-05-05 15:15 47.08597 11.30356 22093 ft 340 kts 223°
2026-05-05 15:15 47.06922 11.27899 22114 ft 340 kts 223°
2026-05-05 15:15 47.05249 11.25447 22136 ft 341 kts 223°
2026-05-05 15:16 47.03571 11.22990 22152 ft 341 kts 224°
2026-05-05 15:16 47.01885 11.20523 22161 ft 341 kts 223°
2026-05-05 15:16 47.00212 11.18078 22167 ft 339 kts 223°
2026-05-05 15:16 46.98542 11.15639 22165 ft 340 kts 224°
2026-05-05 15:17 46.96863 11.13189 22159 ft 341 kts 223°
2026-05-05 15:17 46.95176 11.10732 22154 ft 341 kts 224°
2026-05-05 15:17 46.93500 11.08293 22151 ft 340 kts 223°
2026-05-05 15:17 46.91821 11.05851 22150 ft 340 kts 224°
2026-05-05 15:18 46.90139 11.03407 22152 ft 342 kts 223°
2026-05-05 15:18 46.88448 11.00953 22153 ft 341 kts 224°
2026-05-05 15:18 46.86772 10.98522 22157 ft 340 kts 223°
2026-05-05 15:18 46.85088 10.96084 22164 ft 340 kts 223°
2026-05-05 15:19 46.83408 10.93651 22167 ft 340 kts 223°
2026-05-05 15:19 46.81724 10.91215 22174 ft 341 kts 223°
2026-05-05 15:19 46.80040 10.88782 22177 ft 340 kts 223°
2026-05-05 15:19 46.78358 10.86353 22184 ft 341 kts 223°
2026-05-05 15:20 46.76669 10.83918 22188 ft 340 kts 223°
2026-05-05 15:20 46.74988 10.81497 22194 ft 341 kts 223°
2026-05-05 15:20 46.73302 10.79070 22194 ft 340 kts 223°
2026-05-05 15:20 46.71618 10.76648 22197 ft 340 kts 223°
2026-05-05 15:21 46.69932 10.74225 22196 ft 340 kts 223°
2026-05-05 15:21 46.68250 10.71810 22196 ft 341 kts 223°
2026-05-05 15:21 46.66566 10.69395 22194 ft 340 kts 224°
2026-05-05 15:21 46.64885 10.66985 22196 ft 340 kts 223°
2026-05-05 15:22 46.63195 10.64567 22197 ft 340 kts 223°
2026-05-05 15:22 46.61507 10.62156 22201 ft 340 kts 223°
2026-05-05 15:22 46.59809 10.59730 22205 ft 341 kts 223°
2026-05-05 15:22 46.58123 10.57323 22210 ft 340 kts 223°
2026-05-05 15:23 46.56432 10.54910 22218 ft 340 kts 223°
2026-05-05 15:23 46.54754 10.52519 22227 ft 341 kts 223°
2026-05-05 15:23 46.53059 10.50105 22235 ft 341 kts 224°
2026-05-05 15:23 46.51367 10.47698 22236 ft 340 kts 223°
2026-05-05 15:24 46.49680 10.45301 22233 ft 341 kts 224°
2026-05-05 15:24 46.47990 10.42901 22218 ft 341 kts 224°
2026-05-05 15:24 46.46299 10.40499 22198 ft 340 kts 223°
2026-05-05 15:24 46.44612 10.38108 22178 ft 341 kts 223°
2026-05-05 15:25 46.42920 10.35712 22156 ft 341 kts 223°
2026-05-05 15:25 46.41221 10.33310 22132 ft 340 kts 223°
2026-05-05 15:25 46.39530 10.30919 22110 ft 341 kts 223°
2026-05-05 15:25 46.37834 10.28526 22084 ft 340 kts 223°
2026-05-05 15:26 46.36144 10.26144 22060 ft 340 kts 223°
2026-05-05 15:26 46.34446 10.23752 22040 ft 340 kts 223°
2026-05-05 15:26 46.32745 10.21357 22040 ft 341 kts 223°
2026-05-05 15:26 46.31049 10.18971 22044 ft 340 kts 223°
2026-05-05 15:27 46.29351 10.16583 22053 ft 341 kts 223°
2026-05-05 15:27 46.27652 10.14197 22063 ft 341 kts 223°
2026-05-05 15:27 46.25952 10.11812 22075 ft 340 kts 223°
2026-05-05 15:27 46.24242 10.09415 22089 ft 340 kts 223°
2026-05-05 15:28 46.22538 10.07029 22108 ft 341 kts 223°
2026-05-05 15:28 46.20836 10.04649 22123 ft 340 kts 223°
2026-05-05 15:28 46.19140 10.02277 22136 ft 340 kts 223°
2026-05-05 15:28 46.17439 9.99901 22149 ft 341 kts 223°
2026-05-05 15:29 46.15723 9.97508 22150 ft 341 kts 223°
2026-05-05 15:29 46.14027 9.95145 22142 ft 339 kts 223°
2026-05-05 15:29 46.12326 9.92775 22132 ft 338 kts 223°
2026-05-05 15:29 46.10633 9.90420 22122 ft 339 kts 223°
2026-05-05 15:30 46.08932 9.88055 22107 ft 339 kts 223°
2026-05-05 15:30 46.07232 9.85694 22093 ft 339 kts 223°
2026-05-05 15:30 46.05538 9.83344 22073 ft 339 kts 223°